Location: Bovenkerk
(52.2915°N, 4.8336°E)
Time: 22:16:15
(UTC+00:00)

N. Korean satellite - Pass Details

Date: 12 March 2021
Orbit: 453 x 499 km, 97.2° (Epoch: 12 April)

Event Time Altitude Azimuth Distance (km) Brightness Sun altitude
Rises 04:28:09 0° 23° (NNE) 2,553 10.8 -15.0°
Reaches altitude 10° 04:30:28 10° 37° (NE) 1,677 10.0 -14.7°
Maximum altitude 04:33:31 25° 94° (E) 1,015 9.0 -14.2°
Drops below altitude 10° 04:36:35 10° 152° (SSE) 1,685 9.5 -13.8°
Sets 04:38:55 0° 166° (SSE) 2,568 10.3 -13.4°
